Showing default

HULIANWANG DIGUI-157, 68131

Orbit data source: Space-Track

HULIANWANG DIGUI-157, 68131 is a payload satellite owned by Zhongguo Xingwang (CN) in LEO that was launched on Thu, 12 Mar 2026 UTC via a CHANG ZHENG 8A launch vehicle from the Wenchang Satellite Launch Center (WSC). Payload-class satellites include a variety of spacecraft equipped with specific instruments for various scientific and technological missions. These include communications satellites like Starlink; space stations such as the ISS; scientific satellites like the Hubble; Earth observation satellites from companies like Planet Labs, Umbra, and HawkEye 360; GPS; miniature CubeSats for education and research; and military/defense satellites.

Loading next visibility...
Identifier
68131, 2026-047C
Orbit
LEO
Country
Flag of CNCN / PRC
Related business
Manufacturer
CAST?
Mission
Operational spacecraft
Bus & Motor
XINGWANG C, Unknown motor
Mass
~700 kg wet, ~700 kg dry
Launch date (UTC)
2026-03-12 (2 months ago)
Launch vehicle
CHANG ZHENG 8A
Launch site
Wenchang Satellite Launch Center (WSC)
Object type
Payload
Rocket body
Debris
Shape & HBR
Unknown shape, 1.1 m
Radar Cross Section
RCS unknown

Expand to show TLE details & history
Last TLE update: 1 day ago

TLE from 1 day ago
0 HULIANWANG DIGUI-157
1 68131U 26047C   26118.56920610 -.00000127  00000-0  31540-5 0  9994
2 68131  50.0038 234.6254 0001469 287.7108  72.3611 13.44273479  6466
Epoch: 2026-04-28T13:39Z
TLE epoch observation values (Epoch: 2026-04-28T13:39:39.407Z)
Latitude
0.00006°
Longitude
173.16862°
Altitude
1,093.58 km
Speed
7.307 km/s
True Right ascension
15h 38m 30s
True Declination
0° 00' 00"
Sunlit
Object was in full shadow at epoch
Visualization orbit readout
Latitude
Unknown
Longitude
Unknown
Altitude
Unknown
Speed
Unknown
Apparent Right ascension
Unknown
Apparent Declination
Unknown
Sunlit
N/A
Visualization observer readout
Local Sidereal Time
21:31:54
Azimuth
Unknown
Elevation
Unknown
Doppler factor
Unknown
Orbital elements
Apogee altitude
1,095.21 km
Perigee altitude
1,093.015 km
Semi-major axis
7,472.249 km
Eccentricity
0.00015
Inclination
50.0038°
RAAN
234.6254°
Arg. of periapsis
287.7108°
True anomaly
72.37714°
Mean anomaly
72.3611°
Eccentric anomaly
72.36912°
Mean motion
3.36021 °/min
Orbital period
107.14 mins
BSTAR
0.000003154
Loading maneuver chart data...
Computing Atmospheric mass density...
Loading historical data...
Loading historical data...
Loading historical data...
Loading historical data...
Loading historical data...
Loading historical data...
Loading historical data...

Documentation

Showing up to 5 results
|